Time,TemperatureF,DewpointF,PressureIn,WindDirection,WindDirectionDegrees,WindSpeedMPH,WindSpeedGustMPH,Humidity,HourlyPrecipIn,Conditions,Clouds,dailyrainin,SoftwareType,DateUTC
2013-06-03 00:12:00,44.6,36.5,29.87,North,349,0.0,0.0,73,0.00,,,0.00,Wunderground v.1.15,2013-06-03 07:12:00,
2013-06-03 00:17:00,44.4,36.6,29.87,North,349,0.0,0.0,74,0.00,,,0.00,Wunderground v.1.15,2013-06-03 07:17:00,
2013-06-03 00:27:00,43.8,36.7,29.88,North,349,0.0,0.0,76,0.00,,,0.00,Wunderground v.1.15,2013-06-03 07:27:00,
2013-06-03 00:37:00,43.2,36.8,29.88,North,349,0.0,0.0,78,0.00,,,0.00,Wunderground v.1.15,2013-06-03 07:37:00,
2013-06-03 00:47:00,42.7,36.3,29.87,North,349,0.0,0.0,78,0.00,,,0.00,Wunderground v.1.15,2013-06-03 07:47:00,
2013-06-03 00:57:00,42.1,35.7,29.87,North,349,0.0,0.0,78,0.00,,,0.00,Wunderground v.1.15,2013-06-03 07:57:00,
2013-06-03 01:12:00,41.4,35.4,29.88,North,349,0.0,0.0,79,0.00,,,0.00,Wunderground v.1.15,2013-06-03 08:12:00,
2013-06-03 01:22:00,41.0,35.3,29.88,North,349,0.0,0.0,80,0.00,,,0.00,Wunderground v.1.15,2013-06-03 08:22:00,
2013-06-03 01:27:00,40.7,35.3,29.88,North,349,0.0,0.0,81,0.00,,,0.00,Wunderground v.1.15,2013-06-03 08:27:00,
2013-06-03 01:42:00,40.0,34.9,29.88,North,349,0.0,0.0,82,0.00,,,0.00,Wunderground v.1.15,2013-06-03 08:42:00,
2013-06-03 01:47:00,39.8,35.1,29.88,North,349,0.0,0.0,83,0.00,,,0.00,Wunderground v.1.15,2013-06-03 08:47:00,
2013-06-03 01:57:00,39.5,34.8,29.89,North,349,0.0,0.0,83,0.00,,,0.00,Wunderground v.1.15,2013-06-03 08:57:00,
2013-06-03 02:12:00,38.8,34.4,29.88,North,349,0.0,0.0,84,0.00,,,0.00,Wunderground v.1.15,2013-06-03 09:12:00,
2013-06-03 02:17:00,38.6,34.5,29.88,North,349,0.0,0.0,85,0.00,,,0.00,Wunderground v.1.15,2013-06-03 09:17:00,
2013-06-03 02:27:00,38.2,34.1,29.88,North,349,0.0,0.0,85,0.00,,,0.00,Wunderground v.1.15,2013-06-03 09:27:00,
2013-06-03 02:37:00,37.9,33.8,29.89,North,349,0.0,0.0,85,0.00,,,0.00,Wunderground v.1.15,2013-06-03 09:37:00,
2013-06-03 02:47:00,37.5,33.7,29.89,North,349,0.0,0.0,86,0.00,,,0.00,Wunderground v.1.15,2013-06-03 09:47:00,
2013-06-03 03:02:00,37.0,33.2,29.89,North,349,0.0,0.0,86,0.00,,,0.00,Wunderground v.1.15,2013-06-03 10:02:00,
2013-06-03 03:12:00,36.6,34.5,29.89,North,349,0.0,0.0,92,0.00,,,0.00,Wunderground v.1.15,2013-06-03 10:12:00,
2013-06-03 03:17:00,36.4,32.9,29.89,North,349,0.0,0.0,87,0.00,,,0.00,Wunderground v.1.15,2013-06-03 10:17:00,
2013-06-03 03:27:00,36.2,32.7,29.89,North,349,0.0,0.0,87,0.00,,,0.00,Wunderground v.1.15,2013-06-03 10:27:00,
2013-06-03 03:37:00,35.8,32.3,29.89,North,349,0.0,0.0,87,0.00,,,0.00,Wunderground v.1.15,2013-06-03 10:37:00,
2013-06-03 03:47:00,35.5,32.0,29.89,North,349,0.0,0.0,87,0.00,,,0.00,Wunderground v.1.15,2013-06-03 10:47:00,
2013-06-03 04:02:00,35.1,31.6,29.89,North,349,0.0,0.0,87,0.00,,,0.00,Wunderground v.1.15,2013-06-03 11:02:00,
2013-06-03 04:12:00,34.8,31.6,29.89,North,349,0.0,0.0,88,0.00,,,0.00,Wunderground v.1.15,2013-06-03 11:12:00,
2013-06-03 04:17:00,34.7,31.5,29.90,North,349,0.0,0.0,88,0.00,,,0.00,Wunderground v.1.15,2013-06-03 11:17:00,
2013-06-03 04:32:00,34.3,31.4,29.90,North,349,0.0,0.0,89,0.00,,,0.00,Wunderground v.1.15,2013-06-03 11:32:00,
2013-06-03 04:37:00,34.1,31.2,29.90,North,349,0.0,0.0,89,0.00,,,0.00,Wunderground v.1.15,2013-06-03 11:37:00,
2013-06-03 04:47:00,33.9,31.0,29.90,North,349,0.0,0.0,89,0.00,,,0.00,Wunderground v.1.15,2013-06-03 11:47:00,
2013-06-03 04:58:00,33.7,30.8,29.90,North,349,0.0,0.0,89,0.00,,,0.00,Wunderground v.1.15,2013-06-03 11:58:00,
2013-06-03 05:12:00,33.3,30.4,29.90,North,349,0.0,0.0,89,0.00,,,0.00,Wunderground v.1.15,2013-06-03 12:12:00,
2013-06-03 05:17:00,33.2,30.6,29.90,North,349,0.0,0.0,90,0.00,,,0.00,Wunderground v.1.15,2013-06-03 12:17:00,
2013-06-03 05:27:00,32.9,30.0,29.90,North,349,0.0,0.0,89,0.00,,,0.00,Wunderground v.1.15,2013-06-03 12:27:00,
2013-06-03 05:37:00,32.6,29.7,29.90,North,349,0.0,0.0,89,0.00,,,0.00,Wunderground v.1.15,2013-06-03 12:37:00,
2013-06-03 05:47:00,32.4,29.8,29.90,North,349,0.0,0.0,90,0.00,,,0.00,Wunderground v.1.15,2013-06-03 12:47:00,
2013-06-03 05:57:00,32.2,29.6,29.90,North,349,0.0,0.0,90,0.00,,,0.00,Wunderground v.1.15,2013-06-03 12:57:00,
2013-06-03 06:12:00,32.3,30.2,29.91,North,349,0.0,0.0,92,0.00,,,0.00,Wunderground v.1.15,2013-06-03 13:12:00,
2013-06-03 06:17:00,32.5,30.4,29.91,North,349,0.0,0.0,92,0.00,,,0.00,Wunderground v.1.15,2013-06-03 13:17:00,
2013-06-03 06:27:00,32.9,31.1,29.91,North,350,0.0,0.0,93,0.00,,,0.00,Wunderground v.1.15,2013-06-03 13:27:00,
2013-06-03 06:37:00,33.7,31.6,29.91,SSE,163,2.0,2.0,92,0.00,,,0.00,Wunderground v.1.15,2013-06-03 13:37:00,
2013-06-03 06:47:00,34.9,32.5,29.91,SSE,163,1.0,1.0,91,0.00,,,0.00,Wunderground v.1.15,2013-06-03 13:47:00,
2013-06-03 06:58:00,36.3,33.6,29.91,SSE,163,1.0,2.0,90,0.00,,,0.00,Wunderground v.1.15,2013-06-03 13:58:00,
2013-06-03 07:12:00,38.3,35.1,29.91,SSE,160,2.0,2.0,88,0.00,,,0.00,Wunderground v.1.15,2013-06-03 14:12:00,
2013-06-03 07:17:00,39.2,35.7,29.91,South,169,2.0,2.0,87,0.00,,,0.00,Wunderground v.1.15,2013-06-03 14:17:00,
2013-06-03 07:27:00,40.6,36.4,29.91,SSE,168,2.0,2.0,85,0.00,,,0.00,Wunderground v.1.15,2013-06-03 14:27:00,
2013-06-03 07:37:00,42.0,37.2,29.92,SSE,168,2.0,2.0,83,0.00,,,0.00,Wunderground v.1.15,2013-06-03 14:37:00,
2013-06-03 07:47:00,43.2,38.1,29.92,SSE,167,3.0,4.0,82,0.00,,,0.00,Wunderground v.1.15,2013-06-03 14:47:00,
2013-06-03 07:57:00,44.1,38.6,29.91,SE,136,4.0,5.0,81,0.00,,,0.00,Wunderground v.1.15,2013-06-03 14:57:00,
2013-06-03 08:12:00,46.0,40.2,29.92,SSW,197,2.0,2.0,80,0.00,,,0.00,Wunderground v.1.15,2013-06-03 15:12:00,
2013-06-03 08:17:00,46.7,40.5,29.92,SSW,196,3.0,3.0,79,0.00,,,0.00,Wunderground v.1.15,2013-06-03 15:17:00,
2013-06-03 08:27:00,48.1,40.9,29.92,SSW,196,2.0,3.0,76,0.00,,,0.00,Wunderground v.1.15,2013-06-03 15:27:00,
2013-06-03 08:37:00,49.3,41.4,29.91,SSW,196,2.0,2.0,74,0.00,,,0.00,Wunderground v.1.15,2013-06-03 15:37:00,
2013-06-03 08:47:00,50.3,41.6,29.91,SSW,196,2.0,4.0,72,0.00,,,0.00,Wunderground v.1.15,2013-06-03 15:47:00,
2013-06-03 08:57:00,51.7,41.5,29.91,SSW,196,2.0,2.0,68,0.00,,,0.00,Wunderground v.1.15,2013-06-03 15:57:00,
2013-06-03 09:12:00,52.9,41.4,29.91,SSW,196,2.0,2.0,65,0.00,,,0.00,Wunderground v.1.15,2013-06-03 16:12:00,
2013-06-03 09:17:00,53.6,41.3,29.91,SSW,196,2.0,2.0,63,0.00,,,0.00,Wunderground v.1.15,2013-06-03 16:17:00,
2013-06-03 09:27:00,54.9,42.1,29.91,SSW,196,2.0,3.0,62,0.00,,,0.00,Wunderground v.1.15,2013-06-03 16:27:00,
2013-06-03 09:38:00,55.5,41.8,29.90,SSW,194,3.0,5.0,60,0.00,,,0.00,Wunderground v.1.15,2013-06-03 16:38:00,
2013-06-03 09:47:00,56.2,40.7,29.90,South,188,2.0,3.0,56,0.00,,,0.00,Wunderground v.1.15,2013-06-03 16:47:00,
2013-06-03 09:57:00,57.6,40.1,29.90,SSW,205,1.0,2.0,52,0.00,,,0.00,Wunderground v.1.15,2013-06-03 16:57:00,
2013-06-03 10:12:00,59.6,39.3,29.89,SSW,199,2.0,2.0,47,0.00,,,0.00,Wunderground v.1.15,2013-06-03 17:12:00,
2013-06-03 10:22:00,60.2,35.8,29.89,SSW,199,3.0,3.0,40,0.00,,,0.00,Wunderground v.1.15,2013-06-03 17:22:00,
2013-06-03 10:27:00,60.7,33.6,29.89,SSW,197,2.0,3.0,36,0.00,,,0.00,Wunderground v.1.15,2013-06-03 17:27:00,
2013-06-03 10:37:00,61.8,35.9,29.89,NW,319,2.0,3.0,38,0.00,,,0.00,Wunderground v.1.15,2013-06-03 17:37:00,
2013-06-03 10:52:00,63.5,32.3,29.89,West,273,1.0,6.0,31,0.00,,,0.00,Wunderground v.1.15,2013-06-03 17:52:00,
2013-06-03 10:57:00,63.8,30.9,29.89,North,355,2.0,6.0,29,0.00,,,0.00,Wunderground v.1.15,2013-06-03 17:57:00,
2013-06-03 11:12:00,64.6,31.6,29.89,WSW,246,2.0,2.0,29,0.00,,,0.00,Wunderground v.1.15,2013-06-03 18:12:00,
2013-06-03 11:17:00,65.5,32.4,29.89,WSW,245,2.0,2.0,29,0.00,,,0.00,Wunderground v.1.15,2013-06-03 18:17:00,
2013-06-03 11:27:00,66.2,32.1,29.89,North,355,2.0,4.0,28,0.00,,,0.00,Wunderground v.1.15,2013-06-03 18:27:00,
2013-06-03 11:37:00,67.2,32.1,29.89,North,5,2.0,3.0,27,0.00,,,0.00,Wunderground v.1.15,2013-06-03 18:37:00,
2013-06-03 11:47:00,67.9,30.8,29.88,NNW,327,2.0,2.0,25,0.00,,,0.00,Wunderground v.1.15,2013-06-03 18:47:00,
2013-06-03 12:02:00,69.0,32.7,29.88,ENE,71,2.0,3.0,26,0.00,,,0.00,Wunderground v.1.15,2013-06-03 19:02:00,
2013-06-03 12:12:00,69.4,33.9,29.88,NNW,327,3.0,4.0,27,0.00,,,0.00,Wunderground v.1.15,2013-06-03 19:12:00,
2013-06-03 12:17:00,69.3,33.9,29.88,NE,36,3.0,4.0,27,0.00,,,0.00,Wunderground v.1.15,2013-06-03 19:17:00,
2013-06-03 12:27:00,69.5,33.1,29.88,ENE,65,2.0,3.0,26,0.00,,,0.00,Wunderground v.1.15,2013-06-03 19:27:00,
2013-06-03 12:37:00,70.2,33.7,29.88,WSW,249,3.0,3.0,26,0.00,,,0.00,Wunderground v.1.15,2013-06-03 19:37:00,
2013-06-03 12:47:00,70.4,34.8,29.87,ENE,78,2.0,3.0,27,0.00,,,0.00,Wunderground v.1.15,2013-06-03 19:47:00,
2013-06-03 12:57:00,70.6,34.0,29.87,West,279,3.0,3.0,26,0.00,,,0.00,Wunderground v.1.15,2013-06-03 19:57:00,
2013-06-03 13:12:00,71.0,34.4,29.87,ESE,119,3.0,4.0,26,0.00,,,0.00,Wunderground v.1.15,2013-06-03 20:12:00,
2013-06-03 13:17:00,71.3,35.6,29.86,NW,313,2.0,4.0,27,0.00,,,0.00,Wunderground v.1.15,2013-06-03 20:17:00,
2013-06-03 13:28:00,71.9,35.1,29.86,NE,51,2.0,3.0,26,0.00,,,0.00,Wunderground v.1.15,2013-06-03 20:28:00,
2013-06-03 13:38:00,72.7,35.8,29.86,ENE,62,2.0,2.0,26,0.00,,,0.00,Wunderground v.1.15,2013-06-03 20:38:00,
2013-06-03 13:47:00,73.1,36.2,29.86,WSW,257,2.0,6.0,26,0.00,,,0.00,Wunderground v.1.15,2013-06-03 20:47:00,
2013-06-03 13:57:00,73.9,35.8,29.85,ENE,70,2.0,3.0,25,0.00,,,0.00,Wunderground v.1.15,2013-06-03 20:57:00,
2013-06-03 14:12:00,73.9,34.8,29.85,East,79,4.0,4.0,24,0.00,,,0.00,Wunderground v.1.15,2013-06-03 21:12:00,
2013-06-03 14:17:00,72.9,35.0,29.85,ENE,73,4.0,5.0,25,0.00,,,0.00,Wunderground v.1.15,2013-06-03 21:17:00,
2013-06-03 14:27:00,72.7,34.8,29.85,NNW,347,3.0,4.0,25,0.00,,,0.00,Wunderground v.1.15,2013-06-03 21:27:00,
2013-06-03 14:37:00,73.6,34.6,29.85,NNW,331,3.0,5.0,24,0.00,,,0.00,Wunderground v.1.15,2013-06-03 21:37:00,
2013-06-03 14:47:00,73.0,34.1,29.84,ENE,77,4.0,4.0,24,0.00,,,0.00,Wunderground v.1.15,2013-06-03 21:47:00,
2013-06-03 14:57:00,74.2,35.1,29.84,West,271,2.0,4.0,24,0.00,,,0.00,Wunderground v.1.15,2013-06-03 21:57:00,
2013-06-03 15:12:00,75.0,34.7,29.84,NNE,15,3.0,3.0,23,0.00,,,0.00,Wunderground v.1.15,2013-06-03 22:12:00,
2013-06-03 15:22:00,75.4,35.0,29.84,NNE,32,3.0,3.0,23,0.00,,,0.00,Wunderground v.1.15,2013-06-03 22:22:00,
2013-06-03 15:27:00,75.0,33.6,29.84,NNW,348,4.0,4.0,22,0.00,,,0.00,Wunderground v.1.15,2013-06-03 22:27:00,
2013-06-03 15:38:00,74.7,33.3,29.84,NW,304,3.0,5.0,22,0.00,,,0.00,Wunderground v.1.15,2013-06-03 22:38:00,
2013-06-03 15:47:00,75.1,32.5,29.84,NE,53,3.0,4.0,21,0.00,,,0.00,Wunderground v.1.15,2013-06-03 22:47:00,
2013-06-03 15:57:00,74.9,32.3,29.84,ENE,69,3.0,3.0,21,0.00,,,0.00,Wunderground v.1.15,2013-06-03 22:57:00,
2013-06-03 16:07:00,75.1,31.3,29.84,ENE,69,3.0,3.0,20,0.00,,,0.00,Wunderground v.1.15,2013-06-03 23:07:00,
2013-06-03 16:12:00,75.1,31.3,29.83,East,89,3.0,3.0,20,0.00,,,0.00,Wunderground v.1.15,2013-06-03 23:12:00,
2013-06-03 16:17:00,75.2,31.3,29.83,ESE,103,3.0,5.0,20,0.00,,,0.00,Wunderground v.1.15,2013-06-03 23:17:00,
2013-06-03 16:32:00,76.0,32.0,29.83,NW,324,2.0,2.0,20,0.00,,,0.00,Wunderground v.1.15,2013-06-03 23:32:00,
2013-06-03 16:42:00,76.0,32.0,29.83,ESE,115,3.0,8.0,20,0.00,,,0.00,Wunderground v.1.15,2013-06-03 23:42:00,
2013-06-03 16:47:00,75.6,32.9,29.83,NNW,346,4.0,8.0,21,0.00,,,0.00,Wunderground v.1.15,2013-06-03 23:47:00,
2013-06-03 16:58:00,75.3,32.6,29.83,NE,36,3.0,3.0,21,0.00,,,0.00,Wunderground v.1.15,2013-06-03 23:58:00,
2013-06-03 17:12:00,75.0,33.6,29.83,East,82,3.0,6.0,22,0.00,,,0.00,Wunderground v.1.15,2013-06-04 00:12:00,
2013-06-03 17:22:00,75.0,34.7,29.83,NNE,24,3.0,3.0,23,0.00,,,0.00,Wunderground v.1.15,2013-06-04 00:22:00,
2013-06-03 17:27:00,75.1,35.8,29.82,NW,307,2.0,3.0,24,0.00,,,0.00,Wunderground v.1.15,2013-06-04 00:27:00,
2013-06-03 17:37:00,75.1,35.8,29.82,North,360,3.0,3.0,24,0.00,,,0.00,Wunderground v.1.15,2013-06-04 00:37:00,
2013-06-03 17:47:00,75.1,35.8,29.82,NW,325,3.0,4.0,24,0.00,,,0.00,Wunderground v.1.15,2013-06-04 00:47:00,
2013-06-03 17:57:00,75.2,34.8,29.82,NNW,334,2.0,4.0,23,0.00,,,0.00,Wunderground v.1.15,2013-06-04 00:57:00,
2013-06-03 18:12:00,74.6,34.3,29.82,North,355,2.0,2.0,23,0.00,,,0.00,Wunderground v.1.15,2013-06-04 01:12:00,
2013-06-03 18:22:00,73.8,33.7,29.82,North,5,3.0,3.0,23,0.00,,,0.00,Wunderground v.1.15,2013-06-04 01:22:00,
2013-06-03 18:27:00,73.7,33.6,29.82,NNW,333,3.0,3.0,23,0.00,,,0.00,Wunderground v.1.15,2013-06-04 01:27:00,
2013-06-03 18:38:00,73.4,34.4,29.82,NE,46,3.0,7.0,24,0.00,,,0.00,Wunderground v.1.15,2013-06-04 01:38:00,
2013-06-03 18:52:00,72.8,34.9,29.82,North,5,3.0,3.0,25,0.00,,,0.00,Wunderground v.1.15,2013-06-04 01:52:00,
2013-06-03 19:02:00,72.4,35.6,29.82,NNE,17,2.0,5.0,26,0.00,,,0.00,Wunderground v.1.15,2013-06-04 02:02:00,
2013-06-03 19:12:00,71.7,36.8,29.83,North,355,2.0,3.0,28,0.00,,,0.00,Wunderground v.1.15,2013-06-04 02:12:00,
2013-06-03 19:17:00,71.3,36.5,29.83,North,360,2.0,3.0,28,0.00,,,0.00,Wunderground v.1.15,2013-06-04 02:17:00,
2013-06-03 19:32:00,70.3,36.5,29.83,East,82,1.0,1.0,29,0.00,,,0.00,Wunderground v.1.15,2013-06-04 02:32:00,
2013-06-03 19:38:00,70.1,36.3,29.83,NNE,17,2.0,2.0,29,0.00,,,0.00,Wunderground v.1.15,2013-06-04 02:38:00,
2013-06-03 19:52:00,68.9,36.2,29.84,NNE,23,2.0,4.0,30,0.00,,,0.00,Wunderground v.1.15,2013-06-04 02:52:00,
2013-06-03 19:57:00,68.4,36.6,29.84,NE,40,2.0,4.0,31,0.00,,,0.00,Wunderground v.1.15,2013-06-04 02:57:00,
2013-06-03 20:12:00,67.6,36.7,29.84,NW,309,1.0,1.0,32,0.00,,,0.00,Wunderground v.1.15,2013-06-04 03:12:00,
2013-06-03 20:17:00,67.0,36.1,29.85,NNE,33,1.0,1.0,32,0.00,,,0.00,Wunderground v.1.15,2013-06-04 03:17:00,
2013-06-03 20:32:00,66.2,36.2,29.85,NNE,15,1.0,2.0,33,0.00,,,0.00,Wunderground v.1.15,2013-06-04 03:32:00,
2013-06-03 20:38:00,65.8,35.9,29.85,West,279,1.0,2.0,33,0.00,,,0.00,Wunderground v.1.15,2013-06-04 03:38:00,
2013-06-03 20:52:00,64.9,35.8,29.85,West,280,1.0,1.0,34,0.00,,,0.00,Wunderground v.1.15,2013-06-04 03:52:00,
2013-06-03 20:57:00,64.5,35.5,29.86,West,280,0.0,1.0,34,0.00,,,0.00,Wunderground v.1.15,2013-06-04 03:57:00,
2013-06-03 21:02:00,64.2,35.2,29.86,West,280,0.0,0.0,34,0.00,,,0.00,Wunderground v.1.15,2013-06-04 04:02:00,
2013-06-03 21:12:00,63.5,35.3,29.86,West,280,0.0,0.0,35,0.00,,,0.00,Wunderground v.1.15,2013-06-04 04:12:00,
2013-06-03 21:17:00,63.1,35.0,29.86,West,280,0.0,0.0,35,0.00,,,0.00,Wunderground v.1.15,2013-06-04 04:17:00,
2013-06-03 21:22:00,62.7,36.0,29.87,West,280,0.0,0.0,37,0.00,,,0.00,Wunderground v.1.15,2013-06-04 04:22:00,
2013-06-03 21:27:00,62.1,36.8,29.87,West,280,0.0,0.0,39,0.00,,,0.00,Wunderground v.1.15,2013-06-04 04:27:00,
2013-06-03 21:32:00,61.7,36.5,29.88,West,280,0.0,0.0,39,0.00,,,0.00,Wunderground v.1.15,2013-06-04 04:32:00,
2013-06-03 21:37:00,61.1,37.2,29.87,West,280,0.0,1.0,41,0.00,,,0.00,Wunderground v.1.15,2013-06-04 04:37:00,
2013-06-03 21:47:00,60.1,36.9,29.87,West,280,1.0,1.0,42,0.00,,,0.00,Wunderground v.1.15,2013-06-04 04:47:00,
2013-06-03 21:57:00,59.1,37.2,29.88,West,280,0.0,1.0,44,0.00,,,0.00,Wunderground v.1.15,2013-06-04 04:57:00,
2013-06-03 22:12:00,58.0,36.2,29.88,West,280,0.0,0.0,44,0.00,,,0.00,Wunderground v.1.15,2013-06-04 05:12:00,
2013-06-03 22:18:00,57.3,35.6,29.88,West,280,0.0,0.0,44,0.00,,,0.00,Wunderground v.1.15,2013-06-04 05:18:00,
2013-06-03 22:27:00,56.1,35.6,29.88,West,280,0.0,0.0,46,0.00,,,0.00,Wunderground v.1.15,2013-06-04 05:27:00,
2013-06-03 22:37:00,55.4,34.9,29.88,West,280,0.0,0.0,46,0.00,,,0.00,Wunderground v.1.15,2013-06-04 05:37:00,
2013-06-03 22:47:00,54.6,34.8,29.88,West,280,0.0,0.0,47,0.00,,,0.00,Wunderground v.1.15,2013-06-04 05:47:00,
2013-06-03 22:57:00,53.9,34.6,29.88,West,280,0.0,0.0,48,0.00,,,0.00,Wunderground v.1.15,2013-06-04 05:57:00,
2013-06-03 23:12:00,53.0,34.8,29.89,West,280,0.0,0.0,50,0.00,,,0.00,Wunderground v.1.15,2013-06-04 06:12:00,
2013-06-03 23:17:00,52.6,34.0,29.89,West,280,0.0,1.0,49,0.00,,,0.00,Wunderground v.1.15,2013-06-04 06:17:00,
2013-06-03 23:27:00,52.0,34.4,29.89,West,280,0.0,2.0,51,0.00,,,0.00,Wunderground v.1.15,2013-06-04 06:27:00,
2013-06-03 23:42:00,51.6,33.6,29.89,West,280,0.0,0.0,50,0.00,,,0.00,Wunderground v.1.15,2013-06-04 06:42:00,
2013-06-03 23:48:00,51.5,34.0,29.89,West,280,0.0,0.0,51,0.00,,,0.00,Wunderground v.1.15,2013-06-04 06:48:00,
2013-06-03 23:57:00,51.0,34.0,29.89,West,280,0.0,0.0,52,0.00,,,0.00,Wunderground v.1.15,2013-06-04 06:57:00,